This is the latest recevied weather packets stored in our database for station/object KD9IXX-13. If no packets are shown the sender has not sent any weather packets the latest 10 day(s).
| Time | Temp. | Humidity | Pressure | Rain* | Wind** | Luminosity | Snow |
|---|---|---|---|---|---|---|---|
| 1777849802 | 18.89° C | 50% | 1008.5 hPa | 0 mm | - | 121 W/m² | - |
| 1777849502 | 18.89° C | 51% | 1008.4 hPa | 0 mm | - | 145 W/m² | - |
| 1777849202 | 18.89° C | 51% | 1008.7 hPa | 0 mm | - | 165 W/m² | - |
| 1777848902 | 18.33° C | 53% | 1008.6 hPa | 0 mm | - | 190 W/m² | - |
| 1777848602 | 17.78° C | 53% | 1008.6 hPa | 0 mm | - | 91 W/m² | - |
| 1777848302 | 18.33° C | 51% | 1008.8 hPa | 0 mm | - | 83 W/m² | - |
| 1777848002 | 18.89° C | 51% | 1008.9 hPa | 0 mm | - | 137 W/m² | - |
| 1777847702 | 18.89° C | 50% | 1008.8 hPa | 0 mm | - | 248 W/m² | - |
| 1777847402 | 17.78° C | 51% | 1009.3 hPa | 0 mm | - | 100 W/m² | - |
| 1777847102 | 17.78° C | 52% | 1009.3 hPa | 0 mm | - | 98 W/m² | - |
| 1777846802 | 17.78° C | 53% | 1009.2 hPa | 0 mm | - | 111 W/m² | - |
| 1777846502 | 17.78° C | 52% | 1009.2 hPa | 0 mm | - | 97 W/m² | - |
| 1777846202 | 17.78° C | 53% | 1009.2 hPa | 0 mm | - | 97 W/m² | - |
| 1777845903 | 17.78° C | 53% | 1009.3 hPa | 0 mm | - | 111 W/m² | - |
| 1777845603 | 17.78° C | 52% | 1009.3 hPa | 0 mm | - | 196 W/m² | - |
| 1777845302 | 18.33° C | 51% | 1009.2 hPa | 0 mm | - | 166 W/m² | - |
| 1777845002 | 17.78° C | 51% | 1009.4 hPa | 0 mm | - | 245 W/m² | - |
| 1777844702 | 17.22° C | 53% | 1009.6 hPa | 0 mm | - | 129 W/m² | - |
| 1777844402 | 17.22° C | 53% | 1009.4 hPa | 0 mm | - | 112 W/m² | - |
| 1777844102 | 17.22° C | 52% | 1009.5 hPa | 0 mm | - | 92 W/m² | - |
| 1777843802 | 17.22° C | 51% | 1009.8 hPa | 0 mm | - | 100 W/m² | - |
| 1777843502 | 17.22° C | 51% | 1009.9 hPa | 0 mm | - | 144 W/m² | - |
| 1777843202 | 17.22° C | 51% | 1009.8 hPa | 0 mm | - | 188 W/m² | - |
| 1777842902 | 17.22° C | 51% | 1010 hPa | 0 mm | - | 169 W/m² | - |
| 1777842602 | 17.22° C | 51% | 1010.3 hPa | 0 mm | - | 147 W/m² | - |
* Rain latest hour (hover to see other rain measurements)
** Current wind speed in m/s (hover to see current wind gust speed)